カタログに戻る

GONETS D1 9

運用中通信PO
NORAD 27060·PAYLOAD·🇷🇺 Russia

打ち上げ Dec 28, 2001 から Plesetsk Cosmodrome

Loading…

次のパス (今後24時間)

TLE

最新Source: Space-Track

元期: Sep 14, 2026, 15:31 UTC

1 27060U 01058F   26257.64714443  .00000025  00000-0  81477-4 0  9992
2 27060  82.5414 138.6056 0009194 100.1261 260.0868 12.63064813139124

AllMySatでGONETS D1 9をリアルタイム追跡

Download on the App Store